sat.trackr.live / text

‹ back to catalog

STARLINK-36685

NORAD 68717 · 2026-081U

PAYLOAD ACTIVE UNKNOWN

§ Identity

Operator
Country
US
Launch date
2026-04-14
Launch site
AFETR
Launch vehicle
Mass (kg)
RCS (m²)

Purposes: comms

External: N2YO · Heavens-Above · Gunter

§ Orbital elements

Epoch: 2026-09-20T03:16:14.096064Z

Period
93.85 min
Inclination
53.1588°
Eccentricity
0.0001624
Mean motion
15.34403697 rev/d
Perigee alt
461.6 km
Apogee alt
463.8 km
Semi-major
6,840.8 km
B*
3.9787e-4
RAAN
207.3423°
Arg perigee
83.3576°
Mean anomaly
276.7611°
Rev number
2,456

§ Raw data

STARLINK-366851 68717U 26081U   26263.13627426  .00013091  00000+0  39787-3 0  99962 68717  53.1588 207.3423 0001624  83.3576 276.7611 15.34403697 24566

JSON: /api/v1/satellites/68717 · /tle

For live sub-satellite position, see the globe view (requires WebGL).

§ Visibility from observer

Set your observer location to see the next 7 days of passes ≥ 10°. The values pass through the URL so the page stays shareable.

No JS? Fill the form by hand. The geolocation button needs JavaScript.